Regional Weather Roundup
Issued by NWS Cleveland, OH

Home | Current Version | Previous Version | Graphics & Text | Print | Product List | Glossary On
Versions: 1 2 3 4 5 6 7 8 9 10 11 12 13 14 15 16 17 18 19 20 21 22 23 24 25 26 27 28 29 30 31 32 33 34 35 36 37 38 39 40 41 42 43 44 45 46 47 48 49 50
000
ASUS41 KCLE 250712
RWRCLE
OHIO REGIONAL WEATHER ROUNDUP
NATIONAL WEATHER SERVICE WILMINGTON, OH
300 AM EDT WED MAY 25 2016

NOTE: "FAIR" INDICATES FEW OR NO CLOUDS BELOW 12,000 FEET WITH NO
SIGNIFICANT WEATHER AND/OR OBSTRUCTIONS TO VISIBILITY.

OHZ001>008-015>018-024>027-034-035-043-044-250800-
   NORTHWEST OHIO

CITY           SKY/WX    TMP DP  RH WIND       PRES   REMARKS
DEFIANCE       FAIR      60  47  61 CALM      30.05R
FINDLAY        FAIR      62  46  55 S10       30.05F
TOLEDO EXPRESS FAIR      63  44  50 SW6       30.04S
TOLEDO EXEC    FAIR      63  45  51 SW9       30.05R
LIMA           FAIR      62  48  60 S10       30.07S
$$

OHZ009>014-019>023-028>033-038-089-250800-
   NORTHEAST OHIO

CITY           SKY/WX    TMP DP  RH WIND       PRES   REMARKS
CLE-HOPKINS    FAIR      64  46  52 S8        30.08S
CLE-LAKEFRONT  FAIR      69  46  43 S9        30.04S
CUY CO. ARPT   NOT AVBL
LORAIN-ELYRIA  FAIR      59  46  62 SW5       30.07S
ASHTABULA      FAIR      56  46  69 CALM      30.07S
AKRON-CANTON   FAIR      59  49  69 SW5       30.10S
WOOSTER        FAIR      58  50  75 CALM      30.10S
MANSFIELD      FAIR      62  46  55 S6        30.10S
YOUNGSTOWN     MOCLDY    62  48  60 S6        30.09S
$$

OHZ042-051>053-060>062-070>072-077>081-250800-
  SOUTHWEST OHIO

CITY           SKY/WX    TMP DP  RH WIND       PRES   REMARKS
CINC-COVINGTON FAIR      62  51  67 S5        30.09S
CINC-LUNKEN    FAIR      55  55 100 CALM      30.10S
HAMILTON       FAIR      56  53  90 CALM      30.10R
DAYTON         FAIR      66  47  50 S8        30.10S
WRIGHT-PAT AFB FAIR      59  49  69 CALM      30.09
DAYTON GENERAL FAIR      64  46  52 S6        30.09S
WILMINGTON     FAIR      60  49  66 S5        30.11S
$$

OHZ036-037-039>041-045>050-054>059-063>069-073>076-082>088-250800-
  CENTRAL AND SOUTHEAST OHIO

CITY           SKY/WX    TMP DP  RH WIND       PRES   REMARKS
COLUMBUS       FAIR      61  52  72 SE5       30.10S
OSU AIRPORT    NOT AVBL
BOLTON FIELD   FAIR      58  51  78 SW5       30.10F
RICKENBACK AFB FAIR      57  51  80 S5        30.09F
NEWARK         FAIR      54  51  90 CALM      30.11R
MARION         FAIR      58  47  66 S6        30.09S
LANCASTER      FAIR      53  50  89 SE3       30.11S
ZANESVILLE     FAIR      57  52  83 CALM      30.12R
NEW PHILLY     FAIR      57  52  83 SE3       30.11S
$$




USA.gov is the U.S. government's official web portal to all federal, state and local government web resources and services.